Location: Grums
(59.3529°N, 13.1129°E)
Time: 00:35:43
(UTC+01:00)

SEEDS - Pass Details

Date: 02 December 2021
Orbit: 584 x 600 km, 97.6° (Epoch: 27 January)

Event Time Altitude Azimuth Distance (km) Brightness Sun altitude
Rises 04:57:18 0° 16° (NNE) 2,831 ? -26.3°
Reaches altitude 10° 04:59:29 10° 18° (NNE) 1,924 ? -26.1°
Enters shadow 05:02:31 47° 28° (NNE) 785 ? -25.7°
